Showing default

OPS 0856, 2403

Orbit data source: Space-Track

OPS 0856, 2403 is a payload satellite owned by USAF SSD (US) in LEO that was launched on Fri, 19 Aug 1966 UTC via an ATLAS SLV-3 AGENA D launch vehicle from the Air Force Western Test Range (AFWTR). Payload-class satellites include a variety of spacecraft equipped with specific instruments for various scientific and technological missions. These include communications satellites like Starlink; space stations such as the ISS; scientific satellites like the Hubble; Earth observation satellites from companies like Planet Labs, Umbra, and HawkEye 360; GPS; miniature CubeSats for education and research; and military/defense satellites.

Loading next visibility...
Identifier
2403, 1966-077A
Orbit
LEO
Country
Flag of USUS
Related business
Manufacturer
LMSC
Mission
Spacecraft
Bus & Motor
MIDAS, Unknown motor
Mass
~2,000 kg wet, ~1,000 kg dry
Launch date (UTC)
1966-08-19 (59 years ago)
Launch vehicle
ATLAS SLV-3 AGENA D
Launch site
Air Force Western Test Range (AFWTR)
Object type
Payload
Rocket body
Debris
Shape & HBR
Unknown
Radar Cross Section
Large (>1 m²)

Expand to show TLE details & history
Last TLE update: 19 hours ago

TLE from 19 hours ago
0 OPS 0856
1 02403U 66077A   25309.87565523 -.00000098  00000-0 -49450-1 0  9997
2 02403  90.3338 273.7780 0008271 309.4546  50.5574  8.59842938507262
Epoch: 2025-11-05T21:00Z
TLE epoch observation values (Epoch: 2025-11-05T21:00:56.611Z)
Latitude
0.00002°
Longitude
-86.79992°
Altitude
3,683.192 km
Speed
6.297 km/s
True Right ascension
18h 15m 06s
True Declination
0° 00' 00"
Sunlit
Object was in daylight at epoch
Visualization orbit readout
Latitude
Unknown
Longitude
Unknown
Altitude
Unknown
Speed
Unknown
Apparent Right ascension
Unknown
Apparent Declination
Unknown
Sunlit
N/A
Visualization observer readout
Local Sidereal Time
11:41:09
Azimuth
Unknown
Elevation
Unknown
Doppler factor
Unknown
Orbital elements
Apogee altitude
3,692.432 km
Perigee altitude
3,675.787 km
Semi-major axis
10,062.247 km
Eccentricity
0.00083
Inclination
90.3338°
RAAN
273.778°
Arg. of periapsis
309.4546°
True anomaly
50.63064°
Mean anomaly
50.5574°
Eccentric anomaly
50.59402°
Mean motion
2.15031 °/min
Orbital period
167.42 mins
BSTAR
-0.04945
Loading maneuver chart data...
Computing Atmospheric mass density...
Loading historical data...
Loading historical data...
Loading historical data...
Loading historical data...
Loading historical data...
Loading historical data...
Loading historical data...

Documentation

Showing up to 5 results
|